Location: Unspecified
(0.0000°N, 0.0000°E)
Time: 17:52:57
(UTC+00:00)

STARLINK 1042 - Pass Details

Date: 18 January 2020
Orbit: 548 x 551 km, 53.0° (Epoch: 17 January)

Event Time Altitude Azimuth Distance (km) Brightness Sun altitude
Rises 05:08:45 0° 180° (S) 2,714 7.5 -14.3°
Reaches altitude 10° 05:12:21 10° 147° (SSE) 1,817 7.1 -13.5°
Maximum altitude 05:13:54 12° 125° (SE) 1,700 7.4 -13.2°
Drops below altitude 10° 05:15:26 10° 103° (ESE) 1,814 7.7 -12.8°
Sets 05:19:01 0° 71° (ENE) 2,703 8.0 -12.0°
